Location: Forli
(44.2227°N, 12.0407°E)
Time: 18:11:28
(UTC+01:00)

ISS - Pass Details

Date: 22 February 2026
Orbit: 416 x 427 km, 51.6° (Epoch: 6 March)

Event Time Altitude Azimuth Distance (km) Brightness Sun altitude
Exits shadow 05:01:04 24° 9° (N) 903 -2.0 -22.2°
Drops below altitude 10° 05:03:17 10° 48° (NE) 1,496 -0.2 -21.8°
Sets 05:05:35 0° 61° (ENE) 2,359 1.2 -21.4°
